Location: *
(58.7167°N, 26.1833°E)
Time: 11:42:03
(UTC+00:00)

NOSS 3-4 (A) - Pass Details

Date: 25 August 2019
Orbit: 910 x 1303 km, 63.4° (Epoch: 21 September)

Event Time Altitude Azimuth Distance (km) Brightness Sun altitude
Rises 22:57:04 0° 306° (NW) 3,762 6.9 -20.2°
Reaches altitude 10° 22:59:38 10° 302° (WNW) 2,859 6.2 -20.2°
Maximum altitude 23:06:12 55° 227° (SW) 1,326 3.9 -20.0°
Enters shadow 23:10:25 25° 161° (SSE) 2,138 4.8 -19.9°
